Simultaneous Nadir Overpasses (SNOs) Predictions

Prediction of SNOs between GOES-17 and TERRA Satellite Orbit:

Table of predicted SNOs for the next 14.0 days since TLE Epoch: 3/23/2024
Index Date Time (GOES-17) GOES-17 Lat,Lon TERRA Lat,Lon Distance(km) Time Diff (sec)
1 03/23/2024 16:50:41 -0.00,-104.68 -0.06,-104.34 38.40 80
2 03/26/2024 04:53:48 0.00,-104.68 -0.06,-105.13 50.76 80
3 03/28/2024 04:34:05 0.00,-104.68 0.79,-101.02 416.72 80
4 03/28/2024 16:54:06 0.00,-104.68 0.23,-105.89 136.67 80
5 03/30/2024 16:39:42 0.00,-104.68 -0.62,-101.77 330.72 80
6 03/31/2024 04:59:50 -0.00,-104.68 -0.42,-106.66 225.40 80
7 04/02/2024 04:40:06 0.00,-104.67 0.47,-102.55 241.45 80
8 04/02/2024 17:00:06 -0.01,-104.66 0.59,-107.41 312.41 80
9 04/04/2024 16:45:41 -0.01,-104.66 -0.28,-103.29 155.06 80
10 04/05/2024 05:05:48 0.01,-104.66 -0.73,-108.19 400.57 80
